Location: Gaast
(52.9002°N, 5.8891°E)
Time: 00:08:56
(UTC+00:00)

Cosmos 2227 Rocket - Pass Details

Date: 18 November 2025
Orbit: 839 x 842 km, 71.0° (Epoch: 04 December)

Event Time Altitude Azimuth Distance (km) Brightness Sun altitude
Rises 17:29:57 0° 307° (NW) 3,404 6.0 -16.6°
Reaches altitude 10° 17:34:11 10° 338° (NNW) 2,468 4.8 -17.2°
Maximum altitude 17:36:23 12° 1° (N) 2,314 4.4 -17.5°
Drops below altitude 10° 17:38:36 10° 24° (NNE) 2,468 4.3 -17.9°
Enters shadow 17:38:40 10° 25° (NNE) 2,477 4.3 -17.9°
